This is the latest recevied weather packets stored in our database for station/object PY2FLB-13. If no packets are shown the sender has not sent any weather packets the latest 10 day(s).
| Time | Temp. | Humidity | Pressure | Rain* | Wind** | Luminosity | Snow |
|---|---|---|---|---|---|---|---|
| 1777907235 | 27.78° C | 46% | 1015.6 hPa | - | - | - | - |
| 1777906935 | 27.22° C | 47% | 1015.8 hPa | - | - | - | - |
| 1777906635 | 27.22° C | 47% | 1015.8 hPa | - | - | - | - |
| 1777906335 | 27.22° C | 47% | 1015.9 hPa | - | - | - | - |
| 1777906035 | 27.78° C | 47% | 1016 hPa | - | - | - | - |
| 1777905735 | 27.22° C | 46% | 1016.1 hPa | - | - | - | - |
| 1777905435 | 27.22° C | 47% | 1016.3 hPa | - | - | - | - |
| 1777905135 | 27.22° C | 48% | 1016.3 hPa | - | - | - | - |
| 1777904835 | 26.67° C | 50% | 1016.4 hPa | - | - | - | - |
| 1777904535 | 26.11° C | 51% | 1016.6 hPa | - | - | - | - |
| 1777904235 | 26.67° C | 50% | 1016.7 hPa | - | - | - | - |
| 1777903935 | 26.11° C | 51% | 1016.8 hPa | - | - | - | - |
| 1777903635 | 26.67° C | 50% | 1016.8 hPa | - | - | - | - |
| 1777903335 | 26.11° C | 52% | 1016.9 hPa | - | - | - | - |
| 1777903035 | 25.56° C | 54% | 1017 hPa | - | - | - | - |
| 1777902735 | 25° C | 55% | 1017.2 hPa | - | - | - | - |
| 1777902435 | 25.56° C | 54% | 1017.1 hPa | - | - | - | - |
| 1777902135 | 25.56° C | 54% | 1017.1 hPa | - | - | - | - |
| 1777901835 | 25° C | 55% | 1017.2 hPa | - | - | - | - |
| 1777901535 | 25° C | 56% | 1017.3 hPa | - | - | - | - |
| 1777901235 | 25° C | 55% | 1017.4 hPa | - | - | - | - |
| 1777900935 | 25° C | 56% | 1017.4 hPa | - | - | - | - |
| 1777900635 | 25° C | 57% | 1017.5 hPa | - | - | - | - |
| 1777900335 | 24.44° C | 57% | 1017.5 hPa | - | - | - | - |
| 1777900035 | 24.44° C | 57% | 1017.5 hPa | - | - | - | - |
* Rain since midnight (hover to see other rain measurements)
** Current wind speed in m/s (hover to see current wind gust speed)